Location: Klickitat County Star Party
(45.8642°N, 120.6771°W)
Time: 17:43:56
(UTC-07:00)

SO-50 - Pass Details

Date: 27 May 2019
Orbit: 586 x 700 km, 64.6° (Epoch: 17 June)

Event Time Altitude Azimuth Distance (km) Brightness Sun altitude
Rises 02:41:21 0° 322° (NW) 3,085 ? -19.0°
Reaches altitude 10° 02:43:43 10° 321° (NW) 2,156 ? -18.8°
Maximum altitude 02:48:38 75° 237° (WSW) 709 ? -18.5°
Enters shadow 02:52:01 19° 154° (SSE) 1,570 ? -18.2°
